Regional Weather Roundup
Issued by NWS

Home | Current Version | Previous Version | Graphics & Text | Print | Product List | Glossary On
Versions: 1 2 3 4 5 6 7 8 9 10 11 12 13 14 15 16 17 18 19 20 21 22 23 24 25 26 27 28
000
ASUS45 KBOU 160810
RWRCO

WEATHER ROUNDUP FOR COLORADO
NATIONAL WEATHER SERVICE DENVER/BOULDER CO
100 AM MST TUE JAN 16 2018

NOTE: "FAIR" INDICATES FEW OR NO CLOUDS BELOW 12000 FEET WITH NO
SIGNIFICANT WEATHER AND/OR OBSTRUCTIONS TO VISIBILITY.

COZ001>005-013-030-031-160900-
...NORTHWEST COLORADO...

CITY           SKY/WX    TMP DP  RH WIND       PRES   REMARKS
CRAIG          FAIR       3  -3  76 SE5       30.45F WCI  -6
HAYDEN         FAIR       8  -3  61 E14       30.44F WCI  -8
MEEKER         FAIR      15   8  73 VRB3      30.41F
RABBIT EARS PA FAIR       7   3  85 MISG      30.29F
STEAMBOAT SPGS FAIR       4   1  86 CALM      30.42F
WALDEN         FAIR      -6 -15  65 SE7       30.40F WCI -20
$$

COZ006>008-011-160900-
...WEST CENTRAL VALLEYS...

CITY           SKY/WX    TMP DP  RH WIND       PRES   REMARKS
GRAND JUNCTION FAIR      29  10  45 CALM      30.37F
MONTROSE       FAIR      20  17  88 SE8       30.39S WCI  10
EAGLE          FAIR      13   7  77 CALM      30.44S
RIFLE          FAIR      21  16  81 S5        30.41S WCI  15
DELTA          FAIR      26  19  73 CALM      30.38S
NUCLA          FAIR      27  19  74 E8        30.36F WCI  18
$$

COZ017>023-064>068-160900-
...SOUTHWEST COLORADO...

CITY           SKY/WX    TMP DP  RH WIND       PRES   REMARKS
DURANGO        FAIR      20  17  88 E5        30.27R WCI  13
CORTEZ         FAIR      21  17  84 NE6       30.28R WCI  13
PAGOSA SPRINGS FAIR      20  18  92 CALM      30.29R
TELLURIDE      FAIR      20  12  72 SE5       30.31S WCI  14
WOLF CREEK PAS FAIR      18 -22  16 NW3       30.33F
$$

COZ009-010-012-014-032>034-037-058>063-160900-
...CENTRAL COLORADO...

CITY           SKY/WX    TMP DP  RH WIND       PRES   REMARKS
ASPEN          FAIR      13   8  81 VRB3      30.35R
BUENA VISTA    MOCLDY    14   9  80 CALM      30.36S
COPPER MTN     NOT AVBL
BERTHOUD PASS  FAIR       0 -11  60 NW20G29   30.20F WCI -22
COTTONWOOD PAS NOT AVBL
GUNNISON       FAIR      11   7  84 CALM      30.34R
KREMMLING      NOT AVBL
LEADVILLE      FAIR       2  -2  83 NE9       30.29S WCI -13
MONARCH PASS   FAIR      10   5  79 W16       30.36S WCI  -7
SALIDA         CLOUDY    18  11  74 CALM      30.45S
SUNLIGHT       FAIR       9   5  85 NE3       30.34F
WILKERSON PASS FAIR       9 -18  28 N13G21    30.26S WCI  -7
$$

COZ069>075-160900-
...SAN LUIS VALLEY/SANGRE DE CRISTO MOUNTAINS...

CITY           SKY/WX    TMP DP  RH WIND       PRES   REMARKS
ALAMOSA        FAIR       8   3  80 CALM      30.31R
DEL NORTE      FAIR      12   6  78 CALM      30.31S
LA VETA PASS   CLOUDY    16  12  86 SW13        N/A  WCI   2
SAGUACHE       FAIR      18  10  73 E5        30.31S WCI  11
$$

COZ035-036-038>040-160900-
...NORTHERN COLORADO FRONT RANGE...

CITY           SKY/WX    TMP DP  RH WIND       PRES   REMARKS
DENVER INTL AP FAIR      -4 -11  72 S12       30.48F WCI -22
DMNS CITY PARK NOT AVBL
AURORA         CLEAR      1  -5  76 SE8       30.47F WCI -14
FRONT RANGE AP FAIR      -1  -7  76 S6        30.49F WCI -12
ERIE MUNI ARPT FAIR       0  -4  85 CALM      30.57F
BOULDER MUN AP FAIR       5  -2  72 N3        30.51R
CENTENNIAL     FAIR       5  -1  76 SW6       30.44F WCI  -6
BROOMFIELD     FAIR       7   0  72 CALM      30.48F
FORT COLLINS   FAIR       0  -7  72 SW6       30.53S WCI -12
LONGMONT       FAIR      -1  -8  70 W5        30.54F WCI -11
$$

COZ041-046-047-076>085-087-088-160900-
...PIKES PEAK/PALMER DIVIDE AND SOUTHERN FOOTHILLS...

CITY           SKY/WX    TMP DP  RH WIND       PRES   REMARKS
COLO. SPRINGS  LGT SNOW  12   8  84 S7        30.45F FOG     WCI   1
A. F. ACADEMY  FLURRIES  12   7  79 CALM      30.41F
SCHRIEVER AFB  FAIR       5   1  85 W8        30.44F WCI  -8
CHEYENNE MTN   FLURRIES   9   8  92 CALM      30.34F
ELLICOTT         N/A    N/A N/A N/A CALM        N/A
FALCON         FLURRIES   6   4  90 W9        30.40F WCI  -8
FORT CARSON    CLOUDY    10   7  85 S6        30.45F WCI   1
LIMON          FAIR      -3  -9  75 CALM      30.51S
MONUMENT HILL  FAIR       1  -2  85 S7        30.39F WCI -11
CANON CITY     CLOUDY    19  14  79 CALM      30.49F
WALSENBURG     PTSUNNY    9   5  85 CALM      30.45S
TRINIDAD       FAIR       6   3  87 NE7       30.48S WCI  -6
$$

COZ042>045-048>051-090-091-160900-
...NORTHEAST COLORADO...

CITY           SKY/WX    TMP DP  RH WIND       PRES   REMARKS
GREELEY ARPT   FAIR       0  -5  79 CALM      30.56F
AKRON          FAIR      -6 -10  83 W8        30.54F WCI -21
BURLINGTON     FAIR       0  -5  79 N10       30.59F WCI -16
WRAY           FAIR      -4  -8  84 W6        30.65S WCI -16
YUMA           FAIR      -9 -15  77 W8        30.60F WCI -26
STERLING       FAIR      -4  -8  84 S5        30.61S WCI -15
HOLYOKE        FAIR       1  -6  71 NW8       30.63S WCI -12
FORT MORGAN    FAIR       2  -7  65 CALM      30.57F
$$

COZ086-089-092>099-160900-
...SOUTHEAST COLORADO...

CITY           SKY/WX    TMP DP  RH WIND       PRES   REMARKS
PUEBLO         FAIR      11   2  67 SE3       30.55S
LA JUNTA       FAIR       8  -2  63 S5        30.60R WCI   0
LAMAR          FAIR      -2  -8  76 NE3       30.63F
SPRINGFIELD      N/A     -4  -7  87 NW7       30.57F WCI -18
$$




USA.gov is the U.S. government's official web portal to all federal, state and local government web resources and services.